• In Russia
  • List of Countries
  • For 7 days
  • Water Temperature
  • Satellite Maps
  • Weather Map
  • Weather Widgets
  • user-avatar
    Login

    Hourly Weather Qala i Naw

    Today, 11 December, Tuesday

    Time Temperature Precipitation Wind Pressure Humidity
    00:00 +5°C° 0 mm 0 mps 682 mmHg 83%
    01:00 +5°C° 0 mm 0 mps 681 mmHg 84%
    02:00 +5°C° 0 mm 0 mps 681 mmHg 83%
    03:00 +5°C° 0 mm 0 mps 681 mmHg 83%
    04:00 +4°C° 0 mm 0 mps 681 mmHg 85%
    05:00 +4°C° 0 mm 0 mps 681 mmHg 84%
    06:00 +4°C° 0 mm 0 mps 681 mmHg 83%
    07:00 +4°C° 0 mm 0 mps 681 mmHg 82%
    08:00 +5°C° 0 mm 0 mps 682 mmHg 73%
    09:00 +8°C° 0 mm 1 mps 682 mmHg 63%
    10:00 +10°C° 0 mm 1 mps 682 mmHg 55%
    11:00 +10°C° 0 mm 1 mps 682 mmHg 51%
    12:00 +11°C° 0 mm 1 mps 682 mmHg 47%
    13:00 +12°C° 0 mm 2 mps 682 mmHg 43%
    14:00 +12°C° 0 mm 2 mps 682 mmHg 44%
    15:00 +10°C° 0 mm 2 mps 682 mmHg 45%
    16:00 +10°C° 0 mm 2 mps 682 mmHg 48%
    17:00 +10°C° 0 mm 1 mps 682 mmHg 53%
    18:00 +9°C° 0 mm 1 mps 682 mmHg 57%
    19:00 +7°C° 0 mm 0 mps 682 mmHg 61%
    20:00 +7°C° 0 mm 0 mps 682 mmHg 59%
    21:00 +8°C° 0 mm 1 mps 682 mmHg 58%
    22:00 +8°C° 0 mm 1 mps 682 mmHg 57%
    23:00 +8°C° 0 mm 1 mps 682 mmHg 54%

    Tomorrow, 12 December, Wednesday

    Time Temperature Precipitation Wind Pressure Humidity
    00:00 +7°C° 0 mm 1 mps 682 mmHg 52%
    01:00 +7°C° 0 mm 1 mps 682 mmHg 50%
    02:00 +7°C° 0 mm 1 mps 682 mmHg 48%
    03:00 +7°C° 0 mm 1 mps 682 mmHg 46%
    04:00 +6°C° 0 mm 2 mps 682 mmHg 44%
    05:00 +6°C° 0 mm 2 mps 682 mmHg 43%
    06:00 +6°C° 0 mm 2 mps 682 mmHg 41%
    07:00 +6°C° 0 mm 2 mps 682 mmHg 40%
    08:00 +8°C° 0 mm 2 mps 683 mmHg 36%
    09:00 +10°C° 0 mm 2 mps 683 mmHg 32%
    10:00 +13°C° 0 mm 2 mps 684 mmHg 27%
    11:00 +13°C° 0 mm 2 mps 683 mmHg 26%
    12:00 +14°C° 0 mm 2 mps 683 mmHg 24%
    13:00 +15°C° 0 mm 2 mps 683 mmHg 23%
    14:00 +15°C° 0 mm 2 mps 683 mmHg 26%
    15:00 +14°C° 0 mm 1 mps 682 mmHg 29%
    16:00 +14°C° 0 mm 1 mps 682 mmHg 32%
    17:00 +13°C° 0 mm 1 mps 683 mmHg 34%
    18:00 +12°C° 0 mm 1 mps 683 mmHg 36%
    19:00 +10°C° 0 mm 2 mps 683 mmHg 38%
    20:00 +10°C° 0 mm 2 mps 683 mmHg 39%
    21:00 +9°C° 0 mm 2 mps 683 mmHg 40%
    22:00 +9°C° 0 mm 3 mps 683 mmHg 41%
    23:00 +9°C° 0 mm 3 mps 683 mmHg 42%

    Day after tomorrow, 13 December, Thursday

    Time Temperature Precipitation Wind Pressure Humidity
    00:00 +9°C° 0 mm 3 mps 683 mmHg 43%
    01:00 +9°C° 0 mm 3 mps 683 mmHg 43%
    02:00 +9°C° 0 mm 3 mps 683 mmHg 43%
    03:00 +8°C° 0 mm 3 mps 682 mmHg 43%
    04:00 +8°C° 0 mm 3 mps 682 mmHg 43%
    05:00 +8°C° 0 mm 3 mps 683 mmHg 42%
    06:00 +8°C° 0 mm 3 mps 683 mmHg 42%
    07:00 +8°C° 0 mm 3 mps 683 mmHg 42%
    08:00 +10°C° 0 mm 3 mps 683 mmHg 36%
    09:00 +12°C° 0 mm 3 mps 684 mmHg 31%
    10:00 +14°C° 0 mm 3 mps 684 mmHg 26%
    11:00 +16°C° 0 mm 3 mps 684 mmHg 23%
    12:00 +18°C° 0 mm 3 mps 684 mmHg 20%
    13:00 +19°C° 0 mm 3 mps 683 mmHg 17%
    14:00 +18°C° 0 mm 2 mps 683 mmHg 19%
    15:00 +17°C° 0 mm 2 mps 683 mmHg 21%
    16:00 +16°C° 0 mm 2 mps 682 mmHg 23%
    17:00 +15°C° 0 mm 2 mps 683 mmHg 24%
    18:00 +14°C° 0 mm 2 mps 683 mmHg 25%
    19:00 +12°C° 0 mm 3 mps 683 mmHg 26%
    20:00 +12°C° 0 mm 3 mps 683 mmHg 26%
    21:00 +11°C° 0 mm 3 mps 683 mmHg 26%
    22:00 +11°C° 0 mm 3 mps 683 mmHg 26%
    23:00 +11°C° 0 mm 3 mps 683 mmHg 26%

    14 December, Friday

    Time Temperature Precipitation Wind Pressure Humidity
    00:00 +10°C° 0 mm 3 mps 683 mmHg 26%
    01:00 +10°C° 0 mm 3 mps 683 mmHg 26%
    02:00 +10°C° 0 mm 3 mps 683 mmHg 26%
    03:00 +10°C° 0 mm 3 mps 683 mmHg 25%
    04:00 +9°C° 0 mm 3 mps 683 mmHg 25%
    05:00 +9°C° 0 mm 3 mps 683 mmHg 25%
    06:00 +9°C° 0 mm 3 mps 683 mmHg 25%
    07:00 +9°C° 0 mm 3 mps 684 mmHg 25%
    08:00 +12°C° 0 mm 2 mps 684 mmHg 22%
    09:00 +14°C° 0 mm 2 mps 685 mmHg 20%
    10:00 +16°C° 0 mm 1 mps 686 mmHg 17%
    11:00 +17°C° 0 mm 2 mps 686 mmHg 17%
    12:00 +17°C° 0 mm 2 mps 685 mmHg 17%
    13:00 +18°C° 0 mm 3 mps 685 mmHg 16%
    14:00 +17°C° 0 mm 3 mps 685 mmHg 20%
    15:00 +16°C° 0 mm 2 mps 685 mmHg 23%
    16:00 +15°C° 0 mm 2 mps 685 mmHg 27%
    17:00 +14°C° 0 mm 2 mps 685 mmHg 31%
    18:00 +12°C° 0 mm 1 mps 686 mmHg 35%
    19:00 +11°C° 0 mm 1 mps 686 mmHg 38%
    20:00 +11°C° 0 mm 1 mps 686 mmHg 39%
    21:00 +10°C° 0 mm 1 mps 686 mmHg 40%
    22:00 +10°C° 0 mm 1 mps 686 mmHg 40%
    23:00 +9°C° 0 mm 1 mps 685 mmHg 41%

    15 December, Saturday

    Time Temperature Precipitation Wind Pressure Humidity
    00:00 +9°C° 0 mm 1 mps 685 mmHg 41%
    01:00 +8°C° 0 mm 1 mps 684 mmHg 41%
    02:00 +7°C° 0 mm 0 mps 684 mmHg 41%
    03:00 +7°C° 0 mm 0 mps 684 mmHg 42%
    04:00 +6°C° 0 mm 0 mps 684 mmHg 42%
    05:00 +6°C° 0 mm 0 mps 684 mmHg 40%
    06:00 +6°C° 0 mm 0 mps 684 mmHg 39%
    07:00 +7°C° 0 mm 1 mps 684 mmHg 38%
    08:00 +9°C° 0 mm 1 mps 684 mmHg 32%
    09:00 +12°C° 0 mm 1 mps 685 mmHg 26%
    10:00 +14°C° 0 mm 1 mps 685 mmHg 21%
    11:00 +15°C° 0 mm 1 mps 685 mmHg 19%
    12:00 +16°C° 0 mm 1 mps 685 mmHg 18%
    13:00 +17°C° 0 mm 2 mps 684 mmHg 17%
    14:00 +16°C° 0 mm 2 mps 684 mmHg 19%
    15:00 +16°C° 0 mm 2 mps 684 mmHg 21%
    16:00 +15°C° 0 mm 2 mps 684 mmHg 24%
    17:00 +14°C° 0 mm 1 mps 684 mmHg 26%
    18:00 +12°C° 0 mm 1 mps 685 mmHg 29%
    19:00 +11°C° 0 mm 1 mps 685 mmHg 32%
    20:00 +11°C° 0 mm 1 mps 685 mmHg 33%
    21:00 +10°C° 0 mm 1 mps 686 mmHg 35%
    22:00 +9°C° 0 mm 2 mps 686 mmHg 36%
    23:00 +8°C° 0 mm 2 mps 686 mmHg 43%

    16 December, Sunday

    Time Temperature Precipitation Wind Pressure Humidity
    00:00 +7°C° 0 mm 2 mps 686 mmHg 51%
    01:00 +6°C° 0 mm 2 mps 687 mmHg 58%
    02:00 +6°C° 0 mm 2 mps 687 mmHg 63%
    03:00 +6°C° 0 mm 1 mps 687 mmHg 68%
    04:00 +6°C° 0 mm 1 mps 687 mmHg 73%
    05:00 +6°C° 0 mm 1 mps 687 mmHg 75%
    06:00 +5°C° 0 mm 1 mps 688 mmHg 78%
    07:00 +5°C° 0 mm 1 mps 688 mmHg 80%
    08:00 +6°C° 0 mm 1 mps 688 mmHg 75%
    09:00 +7°C° 0 mm 1 mps 689 mmHg 69%
    10:00 +7°C° 0 mm 2 mps 689 mmHg 64%
    11:00 +8°C° 0 mm 2 mps 689 mmHg 62%
    12:00 +8°C° 0 mm 2 mps 688 mmHg 61%
    13:00 +9°C° 0 mm 2 mps 688 mmHg 59%
    14:00 +8°C° 0 mm 2 mps 688 mmHg 60%
    15:00 +8°C° 0 mm 2 mps 688 mmHg 62%
    16:00 +8°C° 0 mm 2 mps 688 mmHg 64%
    17:00 +7°C° 0 mm 2 mps 688 mmHg 67%
    18:00 +8°C° 0 mm 1 mps 688 mmHg 71%
    19:00 +7°C° 0 mm 1 mps 688 mmHg 74%
    20:00 +7°C° 0 mm 1 mps 688 mmHg 75%
    21:00 +7°C° 0 mm 1 mps 688 mmHg 77%
    22:00 +6°C° 0 mm 1 mps 688 mmHg 78%
    23:00 +6°C° 0 mm 1 mps 688 mmHg 78%
    Show more